TimeAEST,TemperatureF,Dew PointF,Humidity,Sea Level PressureIn,VisibilityMPH,Wind Direction,Wind SpeedMPH,Gust SpeedMPH,PrecipitationIn,Events,Conditions,WindDirDegrees,DateUTC
12:00 AM,72,62,63,30.02,,South,5.8,,,,Overcast,190,2013-09-09 14:00:00
12:00 AM,73.4,62.6,69,30.01,6.2,South,5.8,-,N/A,,Mostly Cloudy,190,2013-09-09 14:00:00
1:00 AM,69,62,72,30.01,,SSE,5.8,,,,,160,2013-09-09 15:00:00
1:00 AM,69.8,62.6,78,30.01,6.2,SSE,5.8,-,N/A,,Partly Cloudy,160,2013-09-09 15:00:00
2:00 AM,71.6,62.6,73,29.98,6.2,South,6.9,-,N/A,,Scattered Clouds,190,2013-09-09 16:00:00
2:30 AM,71.6,62.6,73,29.98,6.2,South,8.1,-,N/A,,Mostly Cloudy,180,2013-09-09 16:30:00
3:00 AM,72,62,62,29.97,,South,6.9,,,,Overcast,170,2013-09-09 17:00:00
3:00 AM,71.6,60.8,69,29.95,6.2,South,6.9,-,N/A,,Mostly Cloudy,170,2013-09-09 17:00:00
3:30 AM,71.6,60.8,69,29.95,6.2,South,6.9,-,N/A,,Mostly Cloudy,190,2013-09-09 17:30:00
4:00 AM,68,63,78,29.96,,SE,10.4,,,,,130,2013-09-09 18:00:00
4:00 AM,68.0,62.6,83,29.95,6.2,SE,10.4,-,N/A,,Partly Cloudy,130,2013-09-09 18:00:00
4:30 AM,68.0,62.6,83,29.95,6.2,SE,10.4,-,N/A,,Partly Cloudy,130,2013-09-09 18:30:00
5:00 AM,68.0,62.6,83,29.95,6.2,SE,8.1,-,N/A,,Scattered Clouds,140,2013-09-09 19:00:00
5:30 AM,68.0,62.6,83,29.95,6.2,SE,10.4,-,N/A,,Scattered Clouds,140,2013-09-09 19:30:00
6:00 AM,69,63,75,29.98,16,WSW,1.2,,,,Partly Cloudy,250,2013-09-09 20:00:00
6:00 AM,69.8,62.6,78,29.98,6.2,WSW,1.2,-,N/A,,Mostly Cloudy,250,2013-09-09 20:00:00
6:30 AM,68.0,64.4,88,29.98,6.2,SE,11.5,-,N/A,,Mostly Cloudy,140,2013-09-09 20:30:00
7:00 AM,69,63,76,30.01,,SSE,10.4,,,,,160,2013-09-09 21:00:00
7:00 AM,68.0,62.6,83,30.01,6.2,SSE,10.4,-,N/A,,Mostly Cloudy,160,2013-09-09 21:00:00
7:30 AM,69.8,62.6,78,30.01,6.2,NNE,3.5,-,N/A,,Scattered Clouds,30,2013-09-09 21:30:00
8:00 AM,69.8,62.6,78,30.01,6.2,SE,10.4,-,N/A,,Scattered Clouds,140,2013-09-09 22:00:00
8:30 AM,75.2,62.6,65,30.01,6.2,SE,10.4,-,N/A,,Scattered Clouds,140,2013-09-09 22:30:00
9:00 AM,77,63,52,30.02,19,South,10.4,,,,Partly Cloudy,170,2013-09-09 23:00:00
9:00 AM,77.0,62.6,61,30.01,6.2,South,10.4,-,N/A,,Partly Cloudy,170,2013-09-09 23:00:00
9:30 AM,78.8,62.6,57,30.01,6.2,South,8.1,-,N/A,,Partly Cloudy,170,2013-09-09 23:30:00
10:00 AM,80,64,48,30.04,,SSE,8.1,,,,,150,2013-09-10 00:00:00
10:00 AM,78.8,64.4,61,30.01,6.2,SSE,8.1,-,N/A,,Partly Cloudy,150,2013-09-10 00:00:00
10:30 AM,78.8,62.6,57,30.01,6.2,ESE,8.1,-,N/A,,Partly Cloudy,110,2013-09-10 00:30:00
11:00 AM,80.6,62.6,54,30.01,6.2,ESE,8.1,-,N/A,,Partly Cloudy,120,2013-09-10 01:00:00
11:30 AM,80.6,64.4,58,29.98,6.2,ENE,11.5,-,N/A,,Partly Cloudy,60,2013-09-10 01:30:00
12:00 PM,81,65,50,29.98,19,ENE,13.8,,,,Partly Cloudy,70,2013-09-10 02:00:00
12:00 PM,80.6,66.2,61,29.98,6.2,ENE,13.8,-,N/A,,Partly Cloudy,70,2013-09-10 02:00:00
12:30 PM,80.6,64.4,58,29.95,6.2,ENE,12.7,-,N/A,,Partly Cloudy,60,2013-09-10 02:30:00
1:00 PM,80.6,64.4,58,29.95,6.2,ENE,11.5,-,N/A,,Partly Cloudy,70,2013-09-10 03:00:00
1:30 PM,82.4,62.6,51,29.92,6.2,ENE,10.4,-,N/A,,Partly Cloudy,70,2013-09-10 03:30:00
2:00 PM,80.6,64.4,58,29.92,6.2,ENE,9.2,-,N/A,,Partly Cloudy,60,2013-09-10 04:00:00
2:30 PM,82.4,62.6,51,29.89,6.2,ENE,9.2,-,N/A,,Partly Cloudy,60,2013-09-10 04:30:00
3:00 PM,80.6,66.2,61,29.89,6.2,North,11.5,-,N/A,,Partly Cloudy,10,2013-09-10 05:00:00
3:30 PM,80.6,64.4,58,29.89,6.2,NE,10.4,-,N/A,,Partly Cloudy,50,2013-09-10 05:30:00
4:00 PM,80,64,48,29.90,,NE,9.2,,,,,50,2013-09-10 06:00:00
4:00 PM,80.6,64.4,58,29.89,6.2,NE,9.2,-,N/A,,Partly Cloudy,50,2013-09-10 06:00:00
4:30 PM,78.8,66.2,65,29.89,6.2,NNE,10.4,-,N/A,,Partly Cloudy,30,2013-09-10 06:30:00
5:00 PM,77.0,66.2,69,29.89,6.2,NNE,9.2,-,N/A,,Partly Cloudy,30,2013-09-10 07:00:00
5:30 PM,75.2,66.2,73,29.89,6.2,NE,8.1,-,N/A,,Partly Cloudy,40,2013-09-10 07:30:00
6:00 PM,74,67,73,29.92,,ENE,6.9,,,,,60,2013-09-10 08:00:00
6:00 PM,75.2,68.0,78,29.92,6.2,NE,6.9,-,N/A,,Partly Cloudy,50,2013-09-10 08:00:00
6:30 PM,73.4,68.0,83,29.92,6.2,NE,4.6,-,N/A,,Partly Cloudy,50,2013-09-10 08:30:00
7:00 PM,72,68,82,29.95,,ENE,3.5,,,,,60,2013-09-10 09:00:00
7:00 PM,73.4,68.0,83,29.92,6.2,ENE,3.5,-,N/A,,Partly Cloudy,60,2013-09-10 09:00:00
7:30 PM,71.6,68.0,88,29.95,6.2,Calm,Calm,-,N/A,,Partly Cloudy,0,2013-09-10 09:30:00
8:00 PM,71.6,68.0,88,29.95,6.2,Calm,Calm,-,N/A,,Partly Cloudy,0,2013-09-10 10:00:00
8:30 PM,71.6,68.0,88,29.98,6.2,Calm,Calm,-,N/A,,Partly Cloudy,0,2013-09-10 10:30:00
9:00 PM,70,67,89,29.98,,Calm,Calm,,,,,,2013-09-10 11:00:00
9:00 PM,69.8,68.0,94,29.98,6.2,Calm,Calm,-,N/A,,Partly Cloudy,0,2013-09-10 11:00:00
9:30 PM,69.8,68.0,94,29.98,6.2,Calm,Calm,-,N/A,,Partly Cloudy,0,2013-09-10 11:30:00
10:00 PM,69,67,92,29.99,,Calm,Calm,,,,,,2013-09-10 12:00:00
10:00 PM,69.8,68.0,94,29.98,6.2,Calm,Calm,-,N/A,,Partly Cloudy,0,2013-09-10 12:00:00
10:30 PM,68.0,66.2,94,29.98,6.2,Calm,Calm,-,N/A,,Partly Cloudy,0,2013-09-10 12:30:00
11:00 PM,68.0,66.2,94,29.98,6.2,Calm,Calm,-,N/A,,Partly Cloudy,0,2013-09-10 13:00:00
11:30 PM,68.0,66.2,94,29.98,6.2,Calm,Calm,-,N/A,,Partly Cloudy,0,2013-09-10 13:30:00